Tracking 28125 objects as of 4-Oct-2023
HD Live streaming from Space Station
objects crossing your sky now

STARLINK-4202

Track STARLINK-4202 now!
10-day predictions
STARLINK-4202 is classified as:


NORAD ID: 52848
Int'l Code: 2022-062U
Perigee: 545.9 km
Apogee: 547.8 km
Inclination: 53.2 °
Period: 95.4 minutes
Semi major axis: 6917 km
RCS: Unknown
Launch date: June 17, 2022
Source: United States (US)
Launch site: AIR FORCE EASTERN TEST RANGE (AFETR)
Your satellite tracking list
Your tracking list is empty




NASA's NSSDC Master Catalog

Two Line Element Set (TLE):
1 52848U 22062U   23276.71730431  .00000772  00000-0  66572-4 0  9991
2 52848  53.2192  60.3864 0001374  93.2074 266.9075 15.08843381 71732
Source of the keplerian elements: AFSPC